Weather History for Lamoni, IA

Change the Weather History Date:

Tuesday, February 11, 2014

  Actual Average Record
Temperature  
Mean Temperature 2 °F 27 °F  
Max Temperature 14 °F 36 °F 62 °F (1999)
Min Temperature -9 °F 18 °F -17 °F (1981)
Degree Days  
Heating Degree Days 62 38  
Month to date heating degree days 429  
Since 1 July heating degree days 4121  
Cooling Degree Days 0 0  
Month to date cooling degree days 0  
Year to date cooling degree days 0  
Moisture  
Dew Point -6 °F    
Average Humidity 67    
Maximum Humidity 82    
Minimum Humidity 53    
Precipitation  
Precipitation 0.00 in 0.05 in 1.27 in (1999)
Month to date precipitation 0.53  
Sea Level Pressure  
Sea Level Pressure 30.45 in    
Wind  
Wind Speed 6 mph (SSE)    
Max Wind Speed 12 mph    
Max Gust Speed -    
Visibility 10 miles    
Events      
T = Trace of Precipitation, MM = Missing Value Source: NWS Daily Summary

Daily Weather History Graph

Daily Weather History Graph

Search for Another Location

Airport:

Trip Planner

Search our weather history database for the weather conditions in past years. The results will help you decide how hot, cold, wet, or windy it might be!

Date:

Astronomy

Feb. 11, 2014 Rise Set
Actual Time 7:14 AM CST 5:45 PM CST
Civil Twilight 6:46 AM CST 6:14 PM CST
Nautical Twilight 6:13 AM CST 6:46 PM CST
Astronomical Twilight 5:42 AM CST 7:18 PM CST
Moon 3:06 PM CST (2/11) 4:52 AM CST (2/11)
Length of Visible Light 11h 27m
Length of Day
10h 31m
Waxing Gibbous, 91% of the Moon is Illuminated
Feb 11
Waxing Gibbous
Feb 14
Full
Feb 22
Last Quarter
Mar 1
New
Mar 8
First Quarter

Hourly Weather History & Observations

Time (CST) Temp. Windchill Dew Point Humidity Pressure Visibility Wind Dir Wind Speed Gust Speed Precip Events Conditions
12:53 AM -6.0 °F -16.9 °F -11.0 °F 79% 30.55 in 10.0 mi NNE 4.6 mph - N/A   Clear
1:53 AM -7.1 °F -19.9 °F -11.9 °F 79% 30.55 in 10.0 mi NNE 5.8 mph - N/A   Clear
2:53 AM -6.0 °F -14.7 °F -11.0 °F 79% 30.54 in 10.0 mi ENE 3.5 mph - N/A   Clear
3:53 AM -5.1 °F -15.8 °F -11.9 °F 72% 30.53 in 10.0 mi East 4.6 mph - N/A   Partly Cloudy
4:53 AM -6.0 °F -14.7 °F -11.0 °F 79% 30.54 in 10.0 mi East 3.5 mph - N/A   Partly Cloudy
5:53 AM -9.9 °F - -14.1 °F 82% 30.56 in 10.0 mi Calm Calm - N/A   Clear
6:53 AM -5.1 °F -15.8 °F -9.9 °F 80% 30.55 in 10.0 mi SE 4.6 mph - N/A   Overcast
7:53 AM -5.1 °F -15.8 °F -9.9 °F 80% 30.56 in 10.0 mi South 4.6 mph - N/A   Mostly Cloudy
8:53 AM -2.9 °F -16.5 °F -9.0 °F 75% 30.56 in 10.0 mi SSW 6.9 mph - N/A   Partly Cloudy
9:53 AM -0.0 °F -11.6 °F -7.1 °F 72% 30.55 in 10.0 mi South 5.8 mph - N/A   Overcast
10:53 AM 3.0 °F -9.3 °F -6.0 °F 66% 30.54 in 10.0 mi South 6.9 mph - N/A   Overcast
11:53 AM 6.1 °F -6.8 °F -4.0 °F 63% 30.52 in 10.0 mi South 8.1 mph - N/A   Overcast
12:53 PM 8.1 °F -4.3 °F -4.0 °F 58% 30.48 in 10.0 mi South 8.1 mph - N/A   Overcast
1:53 PM 10.9 °F 2.9 °F -2.0 °F 56% 30.44 in 10.0 mi South 4.6 mph - N/A   Overcast
2:53 PM 12.0 °F -1.3 °F -2.0 °F 53% 30.40 in 10.0 mi SSE 10.4 mph - N/A   Clear
3:53 PM 14.0 °F 3.9 °F -0.0 °F 54% 30.37 in 10.0 mi SSE 6.9 mph - N/A   Mostly Cloudy
4:53 PM 12.9 °F 0.7 °F -0.0 °F 56% 30.34 in 10.0 mi South 9.2 mph - N/A   Overcast
5:53 PM 12.9 °F -0.9 °F -0.0 °F 56% 30.33 in 10.0 mi SSE 11.5 mph - N/A   Overcast
6:53 PM 12.0 °F -1.3 °F -0.0 °F 59% 30.34 in 10.0 mi South 10.4 mph - N/A   Mostly Cloudy
7:53 PM 10.0 °F -3.7 °F -2.0 °F 58% 30.32 in 10.0 mi SSE 10.4 mph - N/A   Clear
8:53 PM 9.0 °F -4.2 °F -2.9 °F 59% 30.32 in 10.0 mi SSE 9.2 mph - N/A   Clear
9:53 PM 8.1 °F -5.3 °F -2.9 °F 61% 30.31 in 10.0 mi South 9.2 mph - N/A   Mostly Cloudy
10:53 PM 8.1 °F -6.2 °F -2.9 °F 61% 30.30 in 10.0 mi South 10.4 mph - N/A   Clear
11:53 PM 8.1 °F -6.2 °F -2.9 °F 61% 30.26 in 10.0 mi South 10.4 mph - N/A   Clear